Paauilo, HI

1:56 PM HST on February 06, 2016 (GMT -1000)
Bradshaw Army Air Field

Weather History for PHSF - March, 2014

Change the Weather History Date:

Saturday, March 29, 2014

  Actual Average Record
Temperature  
Mean Temperature 53 °F -  
Max Temperature 56 °F 65 °F 73 °F (2012)
Min Temperature 49 °F 46 °F 39 °F (2015)
Degree Days  
Heating Degree Days 12    
Growing Degree Days 3 (Base 50)    
Moisture  
Dew Point 50 °F    
Average Humidity 92    
Maximum Humidity 100    
Minimum Humidity 75    
Precipitation  
Precipitation 0.41 in - - ()
Sea Level Pressure  
Sea Level Pressure 30.18 in    
Wind  
Wind Speed 4 mph (WSW)    
Max Wind Speed 9 mph    
Max Gust Speed -    
Visibility 5 miles    
Events Rain    
Averages and records for this station are not official NWS values.
T = Trace of Precipitation, MM = Missing Value Source: NWS Daily Summary

Daily Weather History Graph

Daily Weather History Graph

Search for Another Location

Airport or City:

Trip Planner

Search our weather history database for the weather conditions in past years. The results will help you decide how hot, cold, wet, or windy it might be!

Date:

Astronomy

Mar. 29, 2014 Rise Set
Actual Time 6:18 AM HST 6:35 PM HST
Civil Twilight 5:56 AM HST 6:57 PM HST
Nautical Twilight 5:30 AM HST 7:23 PM HST
Astronomical Twilight 5:04 AM HST 7:49 PM HST
Moon 5:26 AM HST (3/29) 5:55 PM HST (3/29)
Length of Visible Light 13h 01m
Length of Day
12h 17m
Waning Crescent, 1% of the Moon is Illuminated
Mar 29
Waning Crescent
Mar 30
New
Apr 6
First Quarter
Apr 14
Full
Apr 21
Last Quarter

Hourly Weather History & Observations

Time (HST) Temp. Dew Point Humidity Pressure Visibility Wind Dir Wind Speed Gust Speed Precip Events Conditions
12:24 AM 51.8 °F 48.2 °F 88% 30.34 in 2.8 mi ESE 4.6 mph - N/A   Mostly Cloudy
12:34 AM 51.8 °F 50.0 °F 94% 30.34 in 2.0 mi East 4.6 mph - N/A   Mostly Cloudy
12:39 AM 51.8 °F 48.2 °F 88% 30.33 in 3.0 mi East 4.6 mph - N/A   Mostly Cloudy
12:56 AM 51.8 °F 48.7 °F 89% 30.01 in 6.0 mi NNE 2.3 mph - 0.01 in   Overcast
1:56 AM 51.6 °F 49.3 °F 92% 29.98 in 6.0 mi West 1.2 mph - N/A   Overcast
2:56 AM 51.3 °F 49.1 °F 92% 29.97 in 6.0 mi NW 1.2 mph - N/A   Overcast
3:56 AM 51.1 °F 48.4 °F 90% 29.96 in 7.0 mi Calm Calm - N/A   Overcast
4:56 AM 50.2 °F 48.0 °F 92% 29.96 in 7.0 mi ESE 3.5 mph - N/A   Overcast
5:56 AM 51.4 °F 46.9 °F 85% 29.97 in 8.0 mi North 2.3 mph - N/A   Overcast
6:56 AM 50.4 °F 46.8 °F 87% 30.00 in 8.0 mi SE 3.5 mph - N/A   Scattered Clouds
7:56 AM 54.9 °F 47.1 °F 75% 29.99 in 10.0 mi WSW 2.3 mph - N/A   Mostly Cloudy
8:56 AM 54.7 °F 49.3 °F 82% 30.03 in 7.0 mi WSW 2.3 mph - N/A   Mostly Cloudy
9:21 AM 53.6 °F 50.0 °F 88% 30.32 in 6.0 mi WSW 3.5 mph - N/A   Mostly Cloudy
9:26 AM 53.6 °F 50.0 °F 88% 30.32 in 6.0 mi WSW 3.5 mph - N/A   Mostly Cloudy
9:41 AM 53.6 °F 50.0 °F 88% 30.32 in 6.0 mi West 4.6 mph - N/A   Mostly Cloudy
9:46 AM 53.6 °F 50.0 °F 88% 30.32 in 6.0 mi WSW 3.5 mph - N/A   Mostly Cloudy
9:56 AM 54.3 °F 49.6 °F 84% 30.04 in 7.0 mi West 4.6 mph - N/A   Mostly Cloudy
10:06 AM 53.6 °F 50.0 °F 88% 30.32 in 7.0 mi West 5.8 mph - N/A   Mostly Cloudy
10:41 AM 55.4 °F 50.0 °F 82% 30.32 in 6.0 mi WSW 5.8 mph - N/A   Mostly Cloudy
10:56 AM 56.3 °F 50.4 °F 80% 30.03 in 7.0 mi WSW 2.3 mph - N/A   Mostly Cloudy
11:36 AM 55.4 °F 51.8 °F 88% 30.31 in 7.0 mi West 5.8 mph - N/A   Mostly Cloudy
11:56 AM 56.3 °F 49.8 °F 79% 30.01 in 7.0 mi SW 2.3 mph - N/A   Mostly Cloudy
12:16 PM 55.4 °F 51.8 °F 88% 30.30 in 7.0 mi WSW 5.8 mph - N/A Rain Light Rain
12:21 PM 55.4 °F 51.8 °F 88% 30.30 in 5.0 mi WSW 5.8 mph - N/A Rain Light Rain
12:31 PM 53.6 °F 53.6 °F 100% 30.30 in 2.5 mi West 6.9 mph - N/A Rain Rain
12:41 PM 53.6 °F 51.8 °F 94% 30.29 in 2.8 mi West 4.6 mph - N/A Rain Light Rain
12:46 PM 53.6 °F 51.8 °F 94% 30.29 in 3.0 mi West 2.3 mph - N/A Rain Light Rain Showers
12:56 PM 54.7 °F 52.0 °F 91% 29.99 in 4.0 mi WSW 2.3 mph - 0.05 in Rain Light Rain Showers
1:16 PM 53.6 °F 51.8 °F 94% 30.28 in 4.0 mi WSW 3.5 mph - N/A Rain Light Rain Showers
1:18 PM 53.6 °F 51.8 °F 94% 30.28 in 4.0 mi WSW 2.3 mph - N/A   Mostly Cloudy
1:33 PM 53.6 °F 51.8 °F 94% 30.27 in 6.0 mi West 5.8 mph - N/A   Mostly Cloudy
1:43 PM 53.6 °F 51.8 °F 94% 30.27 in 5.0 mi West 4.6 mph - N/A Rain Light Rain Showers
1:56 PM 53.2 °F 51.6 °F 94% 29.98 in 5.0 mi West 4.6 mph - N/A Rain Light Rain Showers
2:01 PM 53.6 °F 51.8 °F 94% 30.26 in 4.0 mi West 8.1 mph - N/A Rain Light Rain Showers
2:22 PM 51.8 °F 51.8 °F 100% 30.25 in 3.0 mi West 6.9 mph - N/A   Mostly Cloudy
2:32 PM 51.8 °F 51.8 °F 100% 30.24 in 4.0 mi West 3.5 mph - N/A   Mostly Cloudy
2:50 PM 51.8 °F 51.8 °F 100% 30.24 in 5.0 mi WSW 4.6 mph - N/A Rain Light Rain Showers
2:56 PM 52.5 °F 51.3 °F 95% 29.96 in 5.0 mi WSW 4.6 mph - N/A Rain Light Rain Showers
3:01 PM 51.8 °F 51.8 °F 100% 30.24 in 4.0 mi WSW 8.1 mph - N/A Rain Light Rain Showers
3:06 PM 51.8 °F 51.8 °F 100% 30.24 in 3.0 mi WSW 8.1 mph - N/A Rain Light Rain Showers
3:11 PM 51.8 °F 51.8 °F 100% 30.24 in 2.8 mi West 9.2 mph - N/A Rain Light Rain Showers
3:16 PM 51.8 °F 51.8 °F 100% 30.24 in 2.8 mi WSW 9.2 mph - N/A Rain Light Rain Showers
3:26 PM 51.8 °F 51.8 °F 100% 30.24 in 2.8 mi WSW 6.9 mph - N/A Rain Light Rain Showers
3:31 PM 51.8 °F 51.8 °F 100% 30.24 in 3.0 mi West 8.1 mph - N/A Rain Light Rain Showers
3:46 PM 51.8 °F 51.8 °F 100% 30.24 in 2.5 mi WSW 6.9 mph - N/A Rain Light Rain Showers
3:56 PM 51.8 °F 50.0 °F 94% 30.24 in 3.0 mi WSW 4.6 mph - N/A Rain Light Rain
3:57 PM 51.8 °F 50.5 °F 95% 29.96 in 3.0 mi West 4.6 mph - 0.02 in Rain Light Rain
4:07 PM 51.8 °F 51.8 °F 100% 30.24 in 2.8 mi SW 5.8 mph - N/A Rain Light Rain
4:12 PM 51.8 °F 50.0 °F 94% 30.24 in 2.8 mi WSW 3.5 mph - N/A Rain Light Rain
4:17 PM 51.8 °F 51.8 °F 100% 30.24 in 4.0 mi WSW 3.5 mph - N/A Rain Light Rain
4:47 PM 51.8 °F 50.0 °F 94% 30.25 in 2.8 mi SW 2.3 mph - N/A Rain Light Rain Showers
4:57 PM 51.6 °F 50.5 °F 96% 29.96 in 2.8 mi WSW 2.3 mph - 0.03 in Rain Light Rain Showers
5:02 PM 51.8 °F 50.0 °F 94% 30.25 in 3.0 mi WSW 3.5 mph - N/A Rain Light Rain Showers
5:12 PM 51.8 °F 50.0 °F 94% 30.25 in 2.8 mi WSW 2.3 mph - N/A Rain Light Rain Showers
5:27 PM 51.8 °F 50.0 °F 94% 30.26 in 3.0 mi Calm Calm - N/A Rain Light Rain Showers
5:56 PM 51.8 °F 49.1 °F 90% 29.96 in 4.0 mi ESE 2.3 mph - 0.05 in Rain Light Rain
6:56 PM 51.1 °F 49.1 °F 93% 29.98 in 6.0 mi East 3.5 mph - 0.03 in Rain Light Rain
7:56 PM 50.5 °F 48.6 °F 93% 30.00 in 6.0 mi ESE 6.9 mph - 0.02 in Rain Light Rain Showers
8:46 PM 50.0 °F 48.2 °F 94% 30.30 in 9.0 mi NW 1.2 mph - N/A   Mostly Cloudy
8:56 PM 50.5 °F 48.4 °F 92% 30.02 in 9.0 mi NW 1.2 mph - 0.02 in   Mostly Cloudy
9:56 PM 50.2 °F 48.4 °F 94% 30.03 in 7.0 mi ENE 3.5 mph - N/A   Overcast
10:47 PM 50.0 °F 48.2 °F 94% 30.33 in 9.0 mi ESE 5.8 mph - N/A   Mostly Cloudy
10:48 PM 50.0 °F 48.2 °F 94% 30.33 in 9.0 mi ESE 5.8 mph - N/A Rain Light Rain
10:56 PM 50.5 °F 48.2 °F 92% 30.03 in 6.0 mi ESE 4.6 mph - N/A Rain Light Rain
11:21 PM 50.0 °F 48.2 °F 94% 30.31 in 2.8 mi ESE 4.6 mph - N/A Rain Rain
11:26 PM 50.0 °F 48.2 °F 94% 30.30 in 3.0 mi SE 4.6 mph - N/A Rain Rain
11:56 PM 49.8 °F 48.0 °F 94% 29.99 in 6.0 mi SSW 2.3 mph - 0.18 in Rain Light Rain